Hourly Data Report for August 16, 2004

All times are specified in Local Standard Time (LST). Add 1 hour to adjust for Daylight Saving Time where and when it is observed.

TORONTO CITY
ONTARIO

43°40'00.000" N
79°24'00.000" W
112.50 m
6158355
71508
XTO

Download Data

Hourly Data (August 2004)
Hourly Data Report for August 16, 2004
TIME Temp Definition
°C
Dew Point Definition
°C
Rel Hum Definition
%
Wind Dir Definition
10's deg

Wind Spd Definition
km/h
Visibility Definition
km
Stn Press Definition
kPa
Hmdx Definition


Wind Chill Definition


Weather Definition


00:00 16.8 13.3 80 LegendMM LegendMM LegendMM 101.13     LegendNANA
01:00 15.9 12.8 82 LegendMM LegendMM LegendMM 101.08     LegendNANA
02:00 16.0 12.8 81 LegendMM LegendMM LegendMM 101.05     LegendNANA
03:00 15.6 12.7 83 LegendMM LegendMM LegendMM 101.06     LegendNANA
04:00 16.2 13.2 82 LegendMM LegendMM LegendMM 101.05     LegendNANA
05:00 15.8 12.6 81 LegendMM LegendMM LegendMM 101.08     LegendNANA
06:00 15.4 12.4 82 LegendMM LegendMM LegendMM 101.12     LegendNANA
07:00 17.1 12.6 75 LegendMM LegendMM LegendMM 101.15     LegendNANA
08:00 19.0 13.0 68 LegendMM LegendMM LegendMM 101.11     LegendNANA
09:00 20.9 12.2 57 LegendMM LegendMM LegendMM 101.09     LegendNANA
10:00 22.6 12.8 54 LegendMM LegendMM LegendMM 101.05 25   LegendNANA
11:00 23.3 13.3 53 LegendMM LegendMM LegendMM 101.04 26   LegendNANA
12:00 23.6 12.7 50 LegendMM LegendMM LegendMM 101.01 26   LegendNANA
13:00 24.2 13.6 52 LegendMM LegendMM LegendMM 100.96 27   LegendNANA
14:00 24.4 13.1 49 LegendMM LegendMM LegendMM 100.91 27   LegendNANA
15:00 24.5 13.6 51 LegendMM LegendMM LegendMM 100.87 28   LegendNANA
16:00 23.3 13.9 56 LegendMM LegendMM LegendMM 100.84 27   LegendNANA
17:00 23.3 13.9 56 LegendMM LegendMM LegendMM 100.81 27   LegendNANA
18:00 22.2 14.4 61 LegendMM LegendMM LegendMM 100.75 26   LegendNANA
19:00 21.4 14.9 66 LegendMM LegendMM LegendMM 100.75 25   LegendNANA
20:00 20.4 14.2 68 LegendMM LegendMM LegendMM 100.76     LegendNANA
21:00 20.6 17.2 81 LegendMM LegendMM LegendMM 100.75 26   LegendNANA
22:00 20.0 16.8 82 LegendMM LegendMM LegendMM 100.73 25   LegendNANA
23:00 19.4 16.4 83 LegendMM LegendMM LegendMM 100.71     LegendNANA

Notes on Data Quality.

Legend

  • E = Estimated
  • M = Missing
  • NA = Not Available
Date modified: